Location: Huntsville
(41.2590°N, 111.7678°W)
Time: 12:26:12
(UTC+00:00)

SR - Visible Passes

Search period start: 14 June 2021 00:00
Search period end: 24 June 2021 00:00
Orbit: 574 x 880 km, 66.7° (Epoch: 13 June)

Date Brightness Start Highest point End Pass type
(mag) Time Alt. Az. Time Alt. Az. Time Alt. Az.
14 Jun ? 08:31:45 10° N 08:34:57 16° NE 08:38:00 10° ENE visible
14 Jun ? 10:12:38 10° NNW 10:17:57 86° ENE 10:22:45 10° SSE visible
15 Jun ? 09:22:56 10° NNW 09:28:01 44° NE 09:32:40 10° SE visible
15 Jun ? 11:05:42 10° NW 11:09:44 24° WSW 11:13:30 10° SSW visible
16 Jun ? 08:33:31 10° N 08:37:52 25° NE 08:41:55 10° E visible
16 Jun ? 10:15:14 10° NW 10:20:16 49° WSW 10:24:50 10° S visible
17 Jun ? 07:44:31 10° N 07:47:29 15° NE 07:50:20 10° ENE visible
17 Jun ? 09:25:16 10° NNW 09:30:34 81° ENE 09:34:51 13° SSE visible
17 Jun ? 11:10:02 10° W 11:11:41 12° W 11:13:18 10° WSW visible
18 Jun ? 08:35:36 10° NNW 08:40:37 41° NE 08:44:45 12° ESE visible
18 Jun ? 10:18:15 10° NW 10:22:23 25° WSW 10:24:03 21° SW visible
19 Jun ? 07:46:14 10° N 07:50:26 23° NE 07:54:21 10° E visible
19 Jun ? 09:27:50 10° NW 09:32:54 53° WSW 09:34:18 39° SSW visible
20 Jun ? 06:57:19 10° N 07:00:02 14° NE 07:02:38 10° ENE visible
20 Jun ? 08:37:54 10° NNW 08:43:09 75° ENE 08:44:47 42° SE visible
20 Jun ? 10:22:18 10° WNW 10:24:07 12° W 10:24:07 12° W visible
21 Jun ? 07:48:16 10° NNW 07:53:11 38° NE 07:55:26 25° ESE visible
21 Jun ? 09:30:47 10° NW 09:34:46 27° WSW 09:34:46 27° WSW visible
22 Jun ? 06:58:56 10° N 07:02:59 22° NE 07:06:11 12° E visible
22 Jun ? 08:40:27 10° NW 08:45:31 57° WSW 08:45:32 57° WSW visible
23 Jun ? 06:10:08 10° N 06:12:34 13° NE 06:14:55 10° ENE visible
23 Jun ? 07:50:33 10° NNW 07:55:45 70° ENE 07:56:24 61° ESE visible
23 Jun ? 09:34:38 10° WNW 09:35:46 12° W 09:35:46 12° W visible
